Tracking 19242 objects as of 16-Aug-2018
HD Live streaming from Space Station
objects crossing your sky now

WESTFORD NEEDLES

Track WESTFORD NEEDLES now!
10-day predictions
WESTFORD NEEDLES is classified as:


NORAD ID: 2530
Int'l Code: 1963-014AJ
Perigee: 2,848.2 km
Apogee: 4,397.6 km
Inclination: 87.4 °
Period: 165.7 minutes
Semi major axis: 9993 km
RCS: 0.1665 m2 (medium)
Launch date: May 9, 1963
Source: United States (US)
Launch site: AIR FORCE WESTERN TEST RANGE (AFWTR)
aabbcc
Your satellite tracking list
Your tracking list is empty




NASA's NSSDC Master Catalog

Two Line Element Set (TLE):
1 02530U 63014AJ  18222.94933730  .00000006  00000-0  10000-3 0  9997
2 02530  87.3698  50.4154 0775148 115.0366 253.3327  8.68959834690691
Source of the keplerian elements: AFSPC